Time,TemperatureF,DewpointF,PressureIn,WindDirection,WindDirectionDegrees,WindSpeedMPH,WindSpeedGustMPH,Humidity,HourlyPrecipIn,Conditions,Clouds,dailyrainin,SoftwareType,DateUTC
2013-07-23 00:05:00,67.9,65.8,29.73,North,355,0.0,0.0,93,0.00,,,0.00,Wunderground v.1.15,2013-07-23 04:05:00,
2013-07-23 07:20:00,67.0,66.1,29.66,North,5,0.0,0.0,97,0.00,,,0.03,Wunderground v.1.15,2013-07-23 11:20:00,
2013-07-23 07:25:00,67.2,66.3,29.66,North,5,0.0,0.0,97,0.00,,,0.03,Wunderground v.1.15,2013-07-23 11:25:00,
2013-07-23 07:30:00,67.2,66.3,29.65,North,5,0.0,0.0,97,0.00,,,0.03,Wunderground v.1.15,2013-07-23 11:30:00,
2013-07-23 07:35:00,67.2,66.3,29.66,North,5,0.0,0.0,97,0.00,,,0.03,Wunderground v.1.15,2013-07-23 11:35:00,
2013-07-23 07:40:00,67.3,66.4,29.65,North,5,0.0,0.0,97,0.00,,,0.03,Wunderground v.1.15,2013-07-23 11:40:00,
2013-07-23 07:50:00,67.7,66.8,29.66,North,5,0.0,0.0,97,0.00,,,0.03,Wunderground v.1.15,2013-07-23 11:50:00,
2013-07-23 07:55:00,67.9,67.0,29.65,North,5,0.0,0.0,97,0.00,,,0.03,Wunderground v.1.15,2013-07-23 11:55:00,
2013-07-23 08:00:00,68.2,67.3,29.65,North,5,0.0,0.0,97,0.00,,,0.03,Wunderground v.1.15,2013-07-23 12:00:00,
2013-07-23 08:05:00,68.6,67.7,29.65,North,5,0.0,0.0,97,0.00,,,0.03,Wunderground v.1.15,2013-07-23 12:05:00,
2013-07-23 08:10:00,69.0,68.1,29.65,North,5,0.0,0.0,97,0.00,,,0.03,Wunderground v.1.15,2013-07-23 12:10:00,
2013-07-23 08:15:00,69.4,68.8,29.65,North,5,0.0,0.0,98,0.00,,,0.03,Wunderground v.1.15,2013-07-23 12:15:00,
2013-07-23 08:20:00,70.0,69.4,29.65,North,5,0.0,0.0,98,0.00,,,0.03,Wunderground v.1.15,2013-07-23 12:20:00,
2013-07-23 08:30:00,70.6,69.7,29.65,NNW,327,0.0,2.0,97,0.00,,,0.03,Wunderground v.1.15,2013-07-23 12:30:00,
2013-07-23 08:35:00,70.9,69.7,29.65,NW,326,0.0,2.0,96,0.00,,,0.03,Wunderground v.1.15,2013-07-23 12:35:00,
2013-07-23 08:40:00,71.2,69.7,29.64,NW,325,0.0,0.0,95,0.00,,,0.03,Wunderground v.1.15,2013-07-23 12:40:00,
2013-07-23 08:45:00,71.4,69.6,29.65,NW,325,0.0,1.0,94,0.00,,,0.03,Wunderground v.1.15,2013-07-23 12:45:00,
2013-07-23 08:50:00,71.6,69.5,29.64,NW,324,1.0,1.0,93,0.00,,,0.03,Wunderground v.1.15,2013-07-23 12:50:00,
2013-07-23 08:55:00,72.3,69.8,29.64,NW,323,1.0,1.0,92,0.00,,,0.03,Wunderground v.1.15,2013-07-23 12:55:00,
2013-07-23 09:00:00,72.7,69.9,29.64,NW,323,0.0,0.0,91,0.00,,,0.03,Wunderground v.1.15,2013-07-23 13:00:00,
2013-07-23 09:10:00,73.5,69.7,29.63,NW,323,0.0,0.0,88,0.00,,,0.03,Wunderground v.1.15,2013-07-23 13:10:00,
2013-07-23 09:15:00,73.5,69.4,29.64,NW,323,0.0,0.0,87,0.00,,,0.03,Wunderground v.1.15,2013-07-23 13:15:00,
2013-07-23 09:20:00,73.8,69.7,29.63,NW,322,0.0,0.0,87,0.00,,,0.03,Wunderground v.1.15,2013-07-23 13:20:00,
2013-07-23 09:25:00,74.2,69.7,29.63,NW,322,0.0,1.0,86,0.00,,,0.03,Wunderground v.1.15,2013-07-23 13:25:00,
2013-07-23 09:30:00,74.4,69.2,29.64,NW,317,0.0,0.0,84,0.00,,,0.03,Wunderground v.1.15,2013-07-23 13:30:00,
2013-07-23 09:40:00,74.8,69.3,29.64,NW,315,0.0,0.0,83,0.00,,,0.03,Wunderground v.1.15,2013-07-23 13:40:00,
2013-07-23 09:45:00,74.9,69.4,29.64,NW,315,0.0,0.0,83,0.00,,,0.03,Wunderground v.1.15,2013-07-23 13:45:00,
2013-07-23 09:50:00,75.2,69.3,29.64,NW,315,0.0,0.0,82,0.00,,,0.03,Wunderground v.1.15,2013-07-23 13:50:00,
2013-07-23 13:55:00,83.0,70.5,29.59,West,281,2.0,2.0,66,0.00,,,0.03,Wunderground v.1.15,2013-07-23 17:55:00,
2013-07-23 14:05:00,82.9,69.5,29.58,West,262,1.0,2.0,64,0.00,,,0.03,Wunderground v.1.15,2013-07-23 18:05:00,
2013-07-23 14:10:00,83.4,71.3,29.58,WSW,251,1.0,1.0,67,0.00,,,0.03,Wunderground v.1.15,2013-07-23 18:10:00,
2013-07-23 14:20:00,83.1,71.0,29.59,SSE,152,1.0,1.0,67,0.00,,,0.03,Wunderground v.1.15,2013-07-23 18:20:00,
2013-07-23 14:25:00,83.5,71.4,29.58,WSW,250,1.0,1.0,67,0.00,,,0.03,Wunderground v.1.15,2013-07-23 18:25:00,
2013-07-23 14:35:00,83.2,71.5,29.58,SE,135,1.0,6.0,68,0.00,,,0.03,Wunderground v.1.15,2013-07-23 18:35:00,
2013-07-23 14:45:00,83.8,70.3,29.58,SW,236,2.0,6.0,64,0.00,,,0.03,Wunderground v.1.15,2013-07-23 18:45:00,
2013-07-23 14:50:00,83.2,67.4,29.58,WSW,257,2.0,2.0,59,0.00,,,0.03,Wunderground v.1.15,2013-07-23 18:50:00,
2013-07-23 15:00:00,83.6,69.2,29.58,WNW,289,2.0,6.0,62,0.00,,,0.03,Wunderground v.1.15,2013-07-23 19:00:00,
2013-07-23 15:05:00,83.6,67.3,29.58,WSW,244,3.0,6.0,58,0.00,,,0.03,Wunderground v.1.15,2013-07-23 19:05:00,
2013-07-23 15:15:00,83.4,68.1,29.58,West,265,3.0,6.0,60,0.00,,,0.03,Wunderground v.1.15,2013-07-23 19:15:00,
2013-07-23 15:20:00,83.8,67.4,29.57,West,274,2.0,6.0,58,0.00,,,0.03,Wunderground v.1.15,2013-07-23 19:20:00,
2013-07-23 15:25:00,84.0,70.0,29.58,NNW,331,1.0,6.0,63,0.00,,,0.03,Wunderground v.1.15,2013-07-23 19:25:00,
2013-07-23 15:30:00,83.9,69.0,29.57,West,270,1.0,9.0,61,0.00,,,0.03,Wunderground v.1.15,2013-07-23 19:30:00,
2013-07-23 15:35:00,83.6,65.7,29.57,WSW,254,2.0,9.0,55,0.00,,,0.03,Wunderground v.1.15,2013-07-23 19:35:00,
2013-07-23 15:40:00,83.5,65.6,29.57,WNW,301,3.0,6.0,55,0.00,,,0.03,Wunderground v.1.15,2013-07-23 19:40:00,
2013-07-23 15:45:00,83.1,64.7,29.57,WNW,286,4.0,6.0,54,0.00,,,0.03,Wunderground v.1.15,2013-07-23 19:45:00,
2013-07-23 15:50:00,83.1,65.3,29.57,NW,304,4.0,4.0,55,0.00,,,0.03,Wunderground v.1.15,2013-07-23 19:50:00,
2013-07-23 15:55:00,83.5,67.2,29.57,West,275,3.0,6.0,58,0.00,,,0.03,Wunderground v.1.15,2013-07-23 19:55:00,
2013-07-23 16:05:00,82.7,66.4,29.56,West,278,3.0,10.0,58,0.00,,,0.03,Wunderground v.1.15,2013-07-23 20:05:00,
2013-07-23 16:10:00,81.9,66.6,29.56,West,261,3.0,3.0,60,0.00,,,0.03,Wunderground v.1.15,2013-07-23 20:10:00,
2013-07-23 16:20:00,81.9,68.5,29.56,WSW,248,2.0,9.0,64,0.00,,,0.03,Wunderground v.1.15,2013-07-23 20:20:00,
2013-07-23 16:30:00,81.7,66.9,29.56,WNW,285,3.0,3.0,61,0.00,,,0.03,Wunderground v.1.15,2013-07-23 20:30:00,
2013-07-23 16:35:00,81.1,66.4,29.56,West,263,2.0,6.0,61,0.00,,,0.03,Wunderground v.1.15,2013-07-23 20:35:00,
2013-07-23 16:40:00,80.8,67.0,29.56,WSW,242,2.0,6.0,63,0.00,,,0.03,Wunderground v.1.15,2013-07-23 20:40:00,
2013-07-23 16:45:00,80.9,68.0,29.57,WSW,246,1.0,6.0,65,0.00,,,0.03,Wunderground v.1.15,2013-07-23 20:45:00,
2013-07-23 16:55:00,81.5,67.2,29.57,WSW,257,2.0,6.0,62,0.00,,,0.03,Wunderground v.1.15,2013-07-23 20:55:00,
2013-07-23 17:00:00,81.0,66.8,29.57,SW,227,2.0,2.0,62,0.00,,,0.03,Wunderground v.1.15,2013-07-23 21:00:00,
2013-07-23 17:05:00,80.1,66.8,29.57,WSW,247,2.0,6.0,64,0.00,,,0.03,Wunderground v.1.15,2013-07-23 21:05:00,
2013-07-23 17:10:00,79.8,67.9,29.57,WSW,246,1.0,1.0,67,0.00,,,0.03,Wunderground v.1.15,2013-07-23 21:10:00,
2013-07-23 17:20:00,79.6,68.5,29.57,West,263,2.0,6.0,69,0.00,,,0.03,Wunderground v.1.15,2013-07-23 21:20:00,
2013-07-23 17:25:00,79.4,68.3,29.57,WNW,284,3.0,6.0,69,0.00,,,0.03,Wunderground v.1.15,2013-07-23 21:25:00,
2013-07-23 17:35:00,78.9,68.3,29.57,SW,217,3.0,5.0,70,0.00,,,0.03,Wunderground v.1.15,2013-07-23 21:35:00,
2013-07-23 17:40:00,78.7,68.1,29.57,WNW,282,2.0,6.0,70,0.00,,,0.03,Wunderground v.1.15,2013-07-23 21:40:00,
2013-07-23 17:45:00,78.6,68.0,29.57,West,259,2.0,6.0,70,0.00,,,0.03,Wunderground v.1.15,2013-07-23 21:45:00,
2013-07-23 17:50:00,78.5,68.3,29.57,West,276,1.0,6.0,71,0.00,,,0.03,Wunderground v.1.15,2013-07-23 21:50:00,
2013-07-23 18:00:00,78.2,68.4,29.57,WNW,288,3.0,3.0,72,0.00,,,0.03,Wunderground v.1.15,2013-07-23 22:00:00,
2013-07-23 18:10:00,78.1,68.7,29.57,SSW,213,2.0,2.0,73,0.00,,,0.03,Wunderground v.1.15,2013-07-23 22:10:00,
2013-07-23 18:15:00,78.0,68.6,29.57,West,275,1.0,6.0,73,0.00,,,0.03,Wunderground v.1.15,2013-07-23 22:15:00,
2013-07-23 18:20:00,77.8,68.8,29.57,West,270,1.0,1.0,74,0.00,,,0.03,Wunderground v.1.15,2013-07-23 22:20:00,
2013-07-23 18:25:00,77.7,69.1,29.57,West,269,1.0,6.0,75,0.00,,,0.03,Wunderground v.1.15,2013-07-23 22:25:00,
2013-07-23 18:35:00,77.3,68.4,29.57,West,271,1.0,6.0,74,0.00,,,0.03,Wunderground v.1.15,2013-07-23 22:35:00,
2013-07-23 18:40:00,77.2,68.7,29.57,West,269,1.0,1.0,75,0.00,,,0.03,Wunderground v.1.15,2013-07-23 22:40:00,
2013-07-23 18:45:00,77.0,68.5,29.57,WNW,288,0.0,6.0,75,0.00,,,0.03,Wunderground v.1.15,2013-07-23 22:45:00,
2013-07-23 18:50:00,76.8,68.7,29.57,WNW,289,0.0,6.0,76,0.00,,,0.03,Wunderground v.1.15,2013-07-23 22:50:00,
2013-07-23 18:55:00,76.6,68.5,29.58,WNW,284,0.0,6.0,76,0.00,,,0.03,Wunderground v.1.15,2013-07-23 22:55:00,
2013-07-23 19:00:00,76.5,68.4,29.57,WNW,284,0.0,6.0,76,0.00,,,0.03,Wunderground v.1.15,2013-07-23 23:00:00,
2013-07-23 19:10:00,76.3,68.6,29.57,West,271,0.0,6.0,77,0.00,,,0.03,Wunderground v.1.15,2013-07-23 23:10:00,
2013-07-23 19:15:00,76.2,68.8,29.58,West,271,0.0,6.0,78,0.00,,,0.03,Wunderground v.1.15,2013-07-23 23:15:00,
2013-07-23 19:20:00,76.0,68.6,29.58,West,271,0.0,6.0,78,0.00,,,0.03,Wunderground v.1.15,2013-07-23 23:20:00,
2013-07-23 19:25:00,75.7,68.4,29.57,West,267,0.0,6.0,78,0.00,,,0.03,Wunderground v.1.15,2013-07-23 23:25:00,
2013-07-23 19:30:00,75.4,68.4,29.57,West,267,0.0,6.0,79,0.00,,,0.03,Wunderground v.1.15,2013-07-23 23:30:00,
2013-07-23 19:40:00,74.9,68.3,29.57,West,267,0.0,6.0,80,0.00,,,0.03,Wunderground v.1.15,2013-07-23 23:40:00,
2013-07-23 19:45:00,74.7,68.1,29.57,West,267,0.0,6.0,80,0.00,,,0.03,Wunderground v.1.15,2013-07-23 23:45:00,
2013-07-23 19:50:00,74.6,68.0,29.57,West,267,0.0,6.0,80,0.00,,,0.03,Wunderground v.1.15,2013-07-23 23:50:00,
2013-07-23 19:55:00,74.5,68.3,29.56,West,267,0.0,6.0,81,0.00,,,0.03,Wunderground v.1.15,2013-07-23 23:55:00,
2013-07-23 20:00:00,74.4,68.2,29.56,West,267,0.0,6.0,81,0.00,,,0.03,Wunderground v.1.15,2013-07-24 00:00:00,
2013-07-23 20:05:00,74.2,68.0,29.56,West,267,0.0,6.0,81,0.00,,,0.03,Wunderground v.1.15,2013-07-24 00:05:00,
2013-07-23 20:10:00,74.2,68.0,29.56,West,267,0.0,6.0,81,0.00,,,0.03,Wunderground v.1.15,2013-07-24 00:10:00,
2013-07-23 20:20:00,73.9,67.7,29.55,West,267,0.0,6.0,81,0.00,,,0.03,Wunderground v.1.15,2013-07-24 00:20:00,
2013-07-23 20:30:00,73.5,67.7,29.56,West,267,0.0,6.0,82,0.00,,,0.03,Wunderground v.1.15,2013-07-24 00:30:00,
2013-07-23 20:35:00,73.4,67.6,29.56,West,267,0.0,6.0,82,0.00,,,0.03,Wunderground v.1.15,2013-07-24 00:35:00,
2013-07-23 20:45:00,73.1,67.6,29.57,West,267,0.0,6.0,83,0.00,,,0.03,Wunderground v.1.15,2013-07-24 00:45:00,
2013-07-23 20:50:00,73.1,67.6,29.57,West,267,0.0,6.0,83,0.00,,,0.03,Wunderground v.1.15,2013-07-24 00:50:00,
2013-07-23 20:55:00,72.9,67.4,29.57,West,267,0.0,6.0,83,0.00,,,0.03,Wunderground v.1.15,2013-07-24 00:55:00,
2013-07-23 21:00:00,72.8,67.7,29.57,West,267,0.0,6.0,84,0.00,,,0.03,Wunderground v.1.15,2013-07-24 01:00:00,
2013-07-23 21:10:00,72.6,67.5,29.58,West,267,0.0,6.0,84,0.00,,,0.03,Wunderground v.1.15,2013-07-24 01:10:00,
2013-07-23 21:15:00,72.6,67.5,29.58,West,267,0.0,6.0,84,0.00,,,0.03,Wunderground v.1.15,2013-07-24 01:15:00,
2013-07-23 21:20:00,72.6,67.5,29.59,WSW,246,1.0,7.0,84,0.00,,,0.03,Wunderground v.1.15,2013-07-24 01:20:00,
2013-07-23 21:30:00,71.1,66.4,29.59,WNW,296,2.0,6.0,85,0.10,,,0.06,Wunderground v.1.15,2013-07-24 01:30:00,
2013-07-23 21:35:00,70.3,65.9,29.60,North,355,1.0,6.0,86,0.05,,,0.06,Wunderground v.1.15,2013-07-24 01:35:00,
2013-07-23 21:40:00,69.8,65.8,29.61,NW,320,1.0,6.0,87,0.04,,,0.06,Wunderground v.1.15,2013-07-24 01:40:00,
2013-07-23 21:45:00,69.1,64.7,29.61,WNW,284,1.0,6.0,86,0.00,,,0.06,Wunderground v.1.15,2013-07-24 01:45:00,
2013-07-23 21:50:00,68.7,64.3,29.61,WNW,298,2.0,6.0,86,0.00,,,0.06,Wunderground v.1.15,2013-07-24 01:50:00,
2013-07-23 21:55:00,68.6,64.2,29.61,WNW,286,1.0,6.0,86,0.00,,,0.06,Wunderground v.1.15,2013-07-24 01:55:00,
2013-07-23 22:00:00,68.3,63.6,29.61,WSW,252,1.0,7.0,85,0.00,,,0.06,Wunderground v.1.15,2013-07-24 02:00:00,
2013-07-23 22:10:00,67.3,61.3,29.61,WNW,287,2.0,2.0,81,0.00,,,0.06,Wunderground v.1.15,2013-07-24 02:10:00,
2013-07-23 22:15:00,67.1,61.4,29.61,West,279,1.0,6.0,82,0.00,,,0.06,Wunderground v.1.15,2013-07-24 02:15:00,
2013-07-23 22:20:00,66.9,60.9,29.61,WNW,284,1.0,1.0,81,0.00,,,0.06,Wunderground v.1.15,2013-07-24 02:20:00,
2013-07-23 22:25:00,66.8,61.1,29.61,WNW,293,1.0,6.0,82,0.00,,,0.06,Wunderground v.1.15,2013-07-24 02:25:00,
2013-07-23 22:35:00,66.7,61.4,29.61,WNW,293,0.0,6.0,83,0.00,,,0.06,Wunderground v.1.15,2013-07-24 02:35:00,
2013-07-23 22:40:00,66.6,61.3,29.62,WNW,293,0.0,6.0,83,0.00,,,0.06,Wunderground v.1.15,2013-07-24 02:40:00,
2013-07-23 22:45:00,66.6,60.9,29.62,WNW,293,0.0,6.0,82,0.00,,,0.06,Wunderground v.1.15,2013-07-24 02:45:00,
2013-07-23 22:55:00,66.5,60.5,29.63,WNW,294,0.0,6.0,81,0.00,,,0.06,Wunderground v.1.15,2013-07-24 02:55:00,
2013-07-23 23:00:00,66.5,60.1,29.63,WNW,302,0.0,6.0,80,0.00,,,0.06,Wunderground v.1.15,2013-07-24 03:00:00,
2013-07-23 23:10:00,66.6,59.9,29.64,NW,319,1.0,1.0,79,0.00,,,0.06,Wunderground v.1.15,2013-07-24 03:10:00,
2013-07-23 23:15:00,66.7,59.6,29.64,WNW,301,1.0,6.0,78,0.00,,,0.06,Wunderground v.1.15,2013-07-24 03:15:00,
2013-07-23 23:20:00,66.7,59.6,29.64,WNW,302,1.0,6.0,78,0.00,,,0.06,Wunderground v.1.15,2013-07-24 03:20:00,